Weather in Errachidia

Morocco     31°55′11″N   4°26′31″W
temp.,
°C
wind,
m/s
gust,
m/s
humid.,
%
clouds,
%
prec.,
mm/h
press.,
hPa
HPBL,
m
22 january, sat
sat2201:00+6wnw014842 0.0 102210
04:00+6ese014812 0.0 102210
07:00+5e11515 0.0 102310
10:00+8nw014113 0.0 102558
13:00+10s22345 0.0 1025544
16:00+12s22313 0.0 1022645
19:00+10s22385 0.0 102317
22:00+9sw114070 0.0 102517
23 january, sun
sun2301:00+7ssw11425 0.0 102510
04:00+6ese11455 0.0 102410
07:00+5ssw014668 0.0 102410
10:00+8ssw113884 0.0 102564
13:00+12sw353385 0.0 1024688
16:00+14sw253296 0.0 10211050
19:00+11ene223811 0.0 102016
22:00+10ene223924 0.0 102216
24 january, mon
mon2401:00+9ne33425 0.0 102214
04:00+8nne2246100 0.0 102110
07:00+7nne1153100 0.0 102010
10:00+9ne124791 0.0 102265
13:00+12e22372 0.0 1021786
16:00+14ese323431 0.0 10181598
19:00+11ene344480 0.0 1020381
22:00+9nne226198 0.0 102253
25 january, tue
tue2501:00+9n116299 0.1 1023179
04:00+8ne226683 0.0 102315
07:00+7ene336390 0.0 102330
10:00+8e344391 0.0 1025351
13:00+9ese4535100 0.0 10251000
16:00+10se563291 0.0 10231533
19:00+9se463598 0.0 1024800
22:00+8ese3637100 0.0 1027542
26 january, wed
wed2601:00+7se1340100 0.0 1027226
04:00+6s1451100 0.0 1028624
07:00+5sse1363100 0.1 1029347
10:00+3s2394100 1.1 1031332
13:00+3se1296100 2.4 1031367
16:00+3s0194100 0.7 1028421
19:00+3ssw1296100 2.1 1028489
22:00+3sw2496100 1.5 1029558